�������l�o���
Date,Time,MP-1(��Sv/h),MP-2(��Sv/h),MP-3(��Sv/h),MP-4(��Sv/h),MP-5(��Sv/h),MP-6(��Sv/h),MP-7(��Sv/h),MP-8(��Sv/h),����,����(m/s),���J
2023/02/12,00:00,0.544,0.782,0.496,1.005,0.685,0.314,0.568,0.542,�k��,3.3,��
2023/02/12,00:10,0.544,0.781,0.495,1.003,0.686,0.312,0.568,0.544,�k��,2.9,��
2023/02/12,00:20,0.545,0.781,0.495,1.002,0.685,0.313,0.567,0.543,�k��,2.9,��
2023/02/12,00:30,0.545,0.780,0.494,1.005,0.685,0.312,0.569,0.543,�k��,2.9,��
2023/02/12,00:40,0.544,0.780,0.494,1.002,0.685,0.313,0.568,0.543,�k��,2.3,��
2023/02/12,00:50,0.545,0.782,0.494,1.005,0.686,0.312,0.570,0.545,���k��,2.5,��
2023/02/12,01:00,0.544,0.783,0.495,1.002,0.684,0.312,0.569,0.543,���k��,2.5,��
2023/02/12,01:10,0.544,0.780,0.495,1.004,0.684,0.313,0.570,0.545,���k��,2.3,��
2023/02/12,01:20,0.545,0.779,0.496,1.004,0.686,0.313,0.569,0.545,���k��,2.0,��
2023/02/12,01:30,0.546,0.780,0.497,1.004,0.685,0.313,0.569,0.544,���k��,2.3,��
2023/02/12,01:40,0.546,0.782,0.494,1.004,0.683,0.313,0.570,0.543,���k��,2.5,��
2023/02/12,01:50,0.543,0.782,0.495,1.004,0.684,0.313,0.569,0.541,���k��,1.7,��
2023/02/12,02:00,0.545,0.781,0.496,1.004,0.686,0.312,0.570,0.543,���k��,1.5,��
2023/02/12,02:10,0.547,0.782,0.495,1.004,0.684,0.314,0.569,0.543,���k��,1.5,��
2023/02/12,02:20,0.545,0.783,0.496,1.006,0.684,0.312,0.568,0.544,���k��,1.5,��
2023/02/12,02:30,0.543,0.783,0.497,1.004,0.685,0.311,0.568,0.543,���k��,1.2,��
2023/02/12,02:40,0.544,0.782,0.495,1.005,0.686,0.314,0.569,0.544,���쐼,0.9,��
2023/02/12,02:50,0.545,0.779,0.497,1.007,0.684,0.312,0.568,0.544,�쐼,1.4,��
2023/02/12,03:00,0.544,0.781,0.495,1.003,0.684,0.312,0.569,0.545,��쐼,1.1,��
2023/02/12,03:10,0.545,0.783,0.497,1.005,0.685,0.312,0.569,0.545,���쐼,1.9,��
2023/02/12,03:20,0.545,0.781,0.496,1.004,0.685,0.314,0.568,0.545,�쐼,1.5,��
2023/02/12,03:30,0.546,0.781,0.495,1.006,0.685,0.312,0.570,0.544,��쐼,1.5,��
2023/02/12,03:40,0.544,0.782,0.496,1.004,0.687,0.313,0.569,0.544,��,1.1,��
2023/02/12,03:50,0.544,0.782,0.494,1.004,0.685,0.312,0.569,0.544,��쐼,0.9,��
2023/02/12,04:00,0.545,0.781,0.494,1.006,0.685,0.313,0.569,0.545,��쐼,1.2,��
2023/02/12,04:10,0.544,0.779,0.495,1.007,0.686,0.313,0.569,0.546,�쐼,1.5,��
2023/02/12,04:20,0.545,0.781,0.496,1.004,0.685,0.313,0.570,0.543,�쐼,1.4,��
2023/02/12,04:30,0.546,0.781,0.496,1.005,0.686,0.313,0.570,0.543,�쐼,0.9,��
2023/02/12,04:40,0.545,0.781,0.496,1.004,0.686,0.312,0.569,0.544,�k��,0.9,��
2023/02/12,04:50,0.545,0.782,0.495,1.004,0.687,0.312,0.569,0.544,��,0.8,��
2023/02/12,05:00,0.545,0.780,0.497,1.003,0.685,0.312,0.568,0.544,���쐼,0.6,��
2023/02/12,05:10,0.544,0.780,0.495,1.004,0.686,0.313,0.569,0.544,��쐼,0.9,��
2023/02/12,05:20,0.544,0.782,0.496,1.003,0.686,0.312,0.569,0.544,��쐼,1.7,��
2023/02/12,05:30,0.543,0.779,0.496,1.005,0.686,0.312,0.569,0.543,��,2.0,��
2023/02/12,05:40,0.544,0.778,0.495,1.006,0.686,0.313,0.569,0.543,��,2.6,��
2023/02/12,05:50,0.547,0.781,0.494,1.004,0.684,0.312,0.570,0.543,��,3.1,��
2023/02/12,06:00,0.546,0.779,0.495,1.003,0.687,0.312,0.569,0.544,��,4.8,��
2023/02/12,06:10,0.546,0.780,0.497,1.005,0.686,0.313,0.569,0.543,��,5.4,��
2023/02/12,06:20,0.545,0.779,0.494,1.004,0.686,0.312,0.569,0.542,��,5.5,��
2023/02/12,06:30,0.544,0.780,0.497,1.005,0.684,0.313,0.571,0.544,��,5.6,��
2023/02/12,06:40,0.545,0.780,0.494,1.003,0.686,0.314,0.571,0.544,��,5.3,��
2023/02/12,06:50,0.546,0.781,0.494,1.003,0.686,0.313,0.568,0.545,��,5.8,��
2023/02/12,07:00,0.545,0.779,0.496,1.004,0.685,0.314,0.568,0.544,��,5.5,��
2023/02/12,07:10,0.545,0.778,0.495,1.003,0.684,0.312,0.570,0.544,��,6.1,��
2023/02/12,07:20,0.545,0.782,0.495,1.003,0.685,0.313,0.571,0.546,��쓌,5.2,��
2023/02/12,07:30,0.547,0.781,0.496,1.006,0.686,0.312,0.569,0.544,��,4.3,��
2023/02/12,07:40,0.547,0.781,0.497,1.004,0.686,0.314,0.570,0.545,��,4.6,��
2023/02/12,07:50,0.545,0.781,0.497,1.004,0.684,0.314,0.571,0.544,��,5.1,��
2023/02/12,08:00,0.547,0.781,0.497,1.005,0.687,0.313,0.571,0.546,��,5.1,��
2023/02/12,08:10,0.545,0.781,0.495,1.003,0.685,0.311,0.571,0.545,��,5.0,��
2023/02/12,08:20,0.546,0.784,0.496,1.005,0.686,0.313,0.571,0.544,��,5.0,��
2023/02/12,08:30,0.547,0.781,0.498,1.006,0.685,0.313,0.572,0.546,��,4.8,��
2023/02/12,08:40,0.546,0.784,0.496,1.006,0.686,0.314,0.570,0.547,��,4.1,��
2023/02/12,08:50,0.547,0.784,0.498,1.005,0.687,0.313,0.572,0.545,��쓌,3.5,��
2023/02/12,09:00,0.549,0.784,0.497,1.008,0.688,0.314,0.572,0.546,��쓌,4.3,��
2023/02/12,09:10,0.548,0.784,0.496,1.007,0.690,0.314,0.572,0.544,��쓌,3.6,��
2023/02/12,09:20,0.549,0.782,0.497,1.006,0.689,0.314,0.573,0.545,��쓌,4.8,��
2023/02/12,09:30,0.548,0.784,0.498,1.008,0.688,0.314,0.572,0.546,��쓌,3.8,��
2023/02/12,09:40,0.548,0.784,0.499,1.007,0.690,0.313,0.570,0.545,��,2.8,��
2023/02/12,09:50,0.548,0.786,0.499,1.005,0.690,0.315,0.571,0.546,��쓌,3.1,��
2023/02/12,10:00,0.549,0.785,0.499,1.007,0.689,0.315,0.572,0.545,��쓌,3.5,��
2023/02/12,10:10,0.549,0.785,0.498,1.008,0.690,0.315,0.572,0.545,��,2.6,��
2023/02/12,10:20,0.552,0.784,0.500,1.006,0.691,0.315,0.570,0.545,��쐼,2.0,��
2023/02/12,10:30,0.550,0.785,0.501,1.007,0.690,0.316,0.570,0.546,��,4.2,��
2023/02/12,10:40,0.550,0.785,0.500,1.008,0.690,0.315,0.572,0.546,��쐼,6.3,��
2023/02/12,10:50,0.551,0.786,0.501,1.007,0.690,0.316,0.571,0.546,�쐼,7.2,��
2023/02/12,11:00,0.550,0.785,0.500,1.007,0.691,0.316,0.570,0.546,�쐼,5.9,��
2023/02/12,11:10,0.549,0.784,0.501,1.009,0.692,0.316,0.573,0.546,�쐼,6.8,��
2023/02/12,11:20,0.551,0.787,0.502,1.009,0.691,0.316,0.572,0.547,���쐼,5.8,��
2023/02/12,11:30,0.550,0.788,0.502,1.007,0.693,0.315,0.571,0.546,���쐼,6.2,��
2023/02/12,11:40,0.550,0.787,0.503,1.007,0.692,0.316,0.573,0.546,�쐼,7.9,��
2023/02/12,11:50,0.550,0.787,0.501,1.007,0.694,0.316,0.571,0.547,�쐼,8.4,��
2023/02/12,12:00,0.549,0.787,0.502,1.009,0.693,0.316,0.572,0.546,�쐼,8.0,��
2023/02/12,12:10,0.550,0.788,0.500,1.009,0.693,0.316,0.573,0.546,�쐼,7.7,��
2023/02/12,12:20,0.550,0.789,0.502,1.012,0.693,0.316,0.571,0.547,�쐼,7.4,��
2023/02/12,12:30,0.552,0.789,0.502,1.010,0.693,0.315,0.572,0.547,�쐼,7.0,��
2023/02/12,12:40,0.552,0.789,0.503,1.008,0.693,0.314,0.572,0.547,�쐼,7.2,��
2023/02/12,12:50,0.551,0.788,0.502,1.011,0.693,0.316,0.571,0.547,�쐼,7.8,��
2023/02/12,13:00,0.551,0.789,0.502,1.009,0.694,0.317,0.575,0.546,�쐼,6.1,��
2023/02/12,13:10,0.553,0.789,0.502,1.011,0.694,0.317,0.572,0.546,�쐼,5.3,��
2023/02/12,13:20,0.553,0.789,0.502,1.011,0.696,0.317,0.573,0.545,�쐼,6.0,��
2023/02/12,13:30,0.551,0.788,0.502,1.009,0.694,0.317,0.573,0.544,���쐼,5.8,��
2023/02/12,13:40,0.553,0.788,0.502,1.009,0.692,0.317,0.572,0.545,���쐼,7.2,��
2023/02/12,13:50,0.552,0.788,0.503,1.010,0.694,0.318,0.573,0.545,���쐼,5.7,��
2023/02/12,14:00,0.552,0.788,0.503,1.011,0.693,0.318,0.572,0.545,��,7.9,��
2023/02/12,14:10,0.552,0.788,0.504,1.010,0.693,0.318,0.573,0.546,��,8.2,��
2023/02/12,14:20,0.552,0.791,0.504,1.012,0.693,0.318,0.573,0.546,���쐼,5.4,��
2023/02/12,14:30,0.551,0.788,0.503,1.012,0.695,0.318,0.573,0.546,�쐼,5.2,��
2023/02/12,14:40,0.551,0.789,0.504,1.012,0.694,0.318,0.574,0.547,�쐼,4.1,��
2023/02/12,14:50,0.553,0.792,0.505,1.010,0.696,0.318,0.574,0.547,��쐼,4.0,��
2023/02/12,15:00,0.553,0.791,0.505,1.010,0.695,0.318,0.574,0.547,��쐼,3.6,��
2023/02/12,15:10,0.552,0.792,0.505,1.011,0.698,0.317,0.572,0.546,���쐼,3.0,��
2023/02/12,15:20,0.553,0.791,0.504,1.012,0.696,0.317,0.572,0.547,��,5.2,��
2023/02/12,15:30,0.553,0.793,0.503,1.011,0.696,0.318,0.574,0.547,���쐼,5.4,��
2023/02/12,15:40,0.553,0.792,0.503,1.012,0.696,0.318,0.574,0.550,�쐼,4.9,��
2023/02/12,15:50,0.551,0.791,0.504,1.011,0.694,0.318,0.574,0.549,���쐼,4.2,��
2023/02/12,16:00,0.553,0.791,0.503,1.012,0.697,0.319,0.573,0.550,�쐼,5.5,��
2023/02/12,16:10,0.552,0.794,0.502,1.012,0.696,0.319,0.575,0.548,��,5.8,��
2023/02/12,16:20,0.552,0.793,0.504,1.013,0.693,0.318,0.574,0.548,��,5.9,��
2023/02/12,16:30,0.551,0.790,0.504,1.014,0.696,0.318,0.573,0.548,��,5.3,��
2023/02/12,16:40,0.552,0.794,0.505,1.013,0.694,0.316,0.573,0.548,��,5.1,��
2023/02/12,16:50,0.551,0.794,0.505,1.015,0.696,0.318,0.573,0.548,���쐼,5.6,��
2023/02/12,17:00,0.552,0.795,0.506,1.015,0.695,0.319,0.573,0.550,�쐼,5.2,��
2023/02/12,17:10,0.553,0.794,0.506,1.013,0.695,0.317,0.574,0.549,�쐼,4.8,��
2023/02/12,17:20,0.554,0.795,0.505,1.014,0.697,0.318,0.572,0.549,���쐼,4.5,��
2023/02/12,17:30,0.553,0.795,0.504,1.013,0.696,0.318,0.573,0.549,�쐼,4.9,��
2023/02/12,17:40,0.553,0.794,0.504,1.012,0.697,0.318,0.574,0.547,���쐼,5.4,��
2023/02/12,17:50,0.554,0.793,0.506,1.012,0.699,0.318,0.575,0.548,���쐼,5.0,��
2023/02/12,18:00,0.554,0.795,0.505,1.013,0.698,0.318,0.574,0.547,���쐼,4.7,��
2023/02/12,18:10,0.554,0.792,0.503,1.013,0.698,0.316,0.575,0.548,�쐼,4.5,��
2023/02/12,18:20,0.554,0.793,0.504,1.015,0.699,0.318,0.575,0.548,�쐼,4.4,��
2023/02/12,18:30,0.554,0.794,0.505,1.012,0.697,0.318,0.577,0.546,��,5.3,��
2023/02/12,18:40,0.554,0.794,0.504,1.014,0.697,0.318,0.575,0.547,��,6.9,��
2023/02/12,18:50,0.556,0.792,0.506,1.012,0.698,0.318,0.575,0.547,���k��,7.7,��
2023/02/12,19:00,0.553,0.793,0.504,1.015,0.698,0.317,0.576,0.548,��,7.4,��
2023/02/12,19:10,0.554,0.794,0.505,1.015,0.699,0.318,0.574,0.550,��,7.7,��
2023/02/12,19:20,0.554,0.797,0.504,1.016,0.697,0.318,0.574,0.548,��,6.7,��
2023/02/12,19:30,0.554,0.795,0.505,1.013,0.697,0.317,0.575,0.549,���k��,5.9,��
2023/02/12,19:40,0.553,0.795,0.503,1.012,0.698,0.317,0.575,0.548,���k��,5.7,��
2023/02/12,19:50,0.553,0.795,0.503,1.014,0.698,0.318,0.576,0.548,�k��,4.9,��
2023/02/12,20:00,0.553,0.794,0.504,1.014,0.698,0.318,0.574,0.548,�k��,4.4,��
2023/02/12,20:10,0.553,0.795,0.505,1.015,0.699,0.317,0.577,0.547,�k��,3.3,��
2023/02/12,20:20,0.553,0.795,0.505,1.014,0.698,0.317,0.575,0.547,�k��,3.0,��
2023/02/12,20:30,0.553,0.795,0.505,1.012,0.699,0.318,0.574,0.548,�k��,4.6,��
2023/02/12,20:40,0.552,0.793,0.505,1.014,0.696,0.317,0.575,0.547,�k��,6.1,��
2023/02/12,20:50,0.552,0.793,0.506,1.013,0.700,0.318,0.575,0.548,�k��,4.9,��
2023/02/12,21:00,0.554,0.794,0.505,1.015,0.696,0.318,0.574,0.548,�k��,2.0,��
2023/02/12,21:10,0.554,0.794,0.506,1.016,0.698,0.318,0.576,0.548,�k,3.8,��
2023/02/12,21:20,0.555,0.794,0.505,1.015,0.699,0.316,0.574,0.548,�k,3.7,��
2023/02/12,21:30,0.554,0.796,0.506,1.013,0.698,0.318,0.576,0.548,�k,2.6,��
2023/02/12,21:40,0.554,0.794,0.503,1.016,0.698,0.318,0.574,0.549,�k�k��,3.1,��
2023/02/12,21:50,0.554,0.795,0.506,1.015,0.699,0.317,0.576,0.548,�k��,2.8,��
2023/02/12,22:00,0.555,0.796,0.503,1.015,0.697,0.318,0.576,0.546,�k��,3.0,��
2023/02/12,22:10,0.553,0.795,0.506,1.015,0.701,0.317,0.574,0.547,�k��,3.9,��
2023/02/12,22:20,0.555,0.795,0.504,1.014,0.698,0.317,0.573,0.547,�k��,5.3,��
2023/02/12,22:30,0.555,0.794,0.504,1.016,0.698,0.317,0.576,0.548,�k��,6.1,��
2023/02/12,22:40,0.554,0.794,0.505,1.015,0.699,0.318,0.575,0.548,�k��,6.5,��
2023/02/12,22:50,0.554,0.796,0.506,1.016,0.700,0.317,0.576,0.548,�k�k��,7.1,��
2023/02/12,23:00,0.554,0.795,0.505,1.018,0.699,0.319,0.575,0.548,�k�k��,6.7,��
2023/02/12,23:10,0.554,0.795,0.504,1.015,0.701,0.319,0.574,0.549,�k��,5.9,��
2023/02/12,23:20,0.556,0.794,0.505,1.013,0.699,0.320,0.573,0.548,�k��,5.2,��
2023/02/12,23:30,0.553,0.795,0.506,1.014,0.699,0.318,0.576,0.548,�k��,4.1,��
2023/02/12,23:40,0.554,0.796,0.504,1.015,0.699,0.316,0.575,0.548,�k�k��,3.8,��
2023/02/12,23:50,0.553,0.796,0.504,1.017,0.698,0.318,0.574,0.550,�k�k��,5.6,��
